{"data":{"norad_id":66330,"intl_designator":"2025-253M","name":"STARLINK-35512","alt_names":[],"object_type":"PAYLOAD","status":"ACTIVE","operator":null,"country":"US","launch_date":"2025-11-06","launch_site_code":"AFETR","launch_vehicle":null,"mission":null,"orbit_class":"UNKNOWN","rcs_meters":null,"size_class":null,"mass_kg":null,"dimensions":null,"purposes":["comms"],"wikipedia_slug":null,"has_3d_model":false,"image_url":null,"decayed_at":null,"tle_current":{"epoch":"2026-05-24T11:33:12.759552Z","epoch_age_seconds":120695,"freshness":"FRESH","line1":"1 66330U 25253M   26144.48139768  .00018340  00000+0  67409-3 0  9992","line2":"2 66330  43.0003 144.6676 0002026 270.3392  89.7228 15.27590872 31837","mean_motion":15.27590872,"eccentricity":0.0002026,"inclination_deg":43.0003,"raan_deg":144.6676,"arg_perigee_deg":270.3392,"mean_anomaly_deg":89.7228,"bstar":0.00067409,"rev_number":3183,"period_min":94.266077808823,"perigee_km":481.62647184603,"apogee_km":484.40661126107,"semimajor_km":6861.1535415535,"source":"CELESTRAK","updated_at":"2026-05-25T13:38:21.168856Z"}}}